This is the latest recevied weather packets stored in our database for station/object KP4FJC. If no packets are shown the sender has not sent any weather packets the latest 1 day(s).
| Time | Temp. | Humidity | Pressure | Rain* | Wind** | Luminosity | Snow |
|---|---|---|---|---|---|---|---|
| 1836274855 | 24.44° C | 99% | 1017.1 hPa | 0 mm | 0.45 m/s, 317° | 0 W/m² | - |
| 1836274553 | 24.44° C | 99% | 1017 hPa | 0 mm | 0 m/s | 0 W/m² | - |
| 1836274407 | 23.89° C | 99% | 1016.9 hPa | 0 mm | 0 m/s | 0 W/m² | - |
| 1836274252 | 24.44° C | 99% | 1016.9 hPa | 0 mm | 0 m/s | 0 W/m² | - |
| 1836273951 | 24.44° C | 99% | 1016.8 hPa | 0 mm | 0.45 m/s, 42° | 0 W/m² | - |
| 1778048627 | 25° C | 89% | 1018.3 hPa | 0 mm | 0 m/s | 0 W/m² | - |
| 1778048323 | 25° C | 89% | 1018.5 hPa | 0 mm | 0 m/s | 0 W/m² | - |
| 1778048019 | 25° C | 89% | 1018.7 hPa | 0 mm | 0.45 m/s, 151° | 0 W/m² | - |
| 1778047718 | 25° C | 89% | 1018.3 hPa | 0 mm | 0.45 m/s, 103° | 0 W/m² | - |
| 1778047415 | 25° C | 89% | 1018.4 hPa | 0 mm | 0.89 m/s, 171° | 0 W/m² | - |
| 1778047112 | 25° C | 89% | 1018.6 hPa | 0 mm | 0 m/s | 0 W/m² | - |
| 1778046809 | 25° C | 89% | 1018.7 hPa | 0 mm | 0 m/s | 0 W/m² | - |
| 1778046506 | 25° C | 89% | 1018.4 hPa | 0 mm | 0.45 m/s, 71° | 0 W/m² | - |
| 1778046203 | 25° C | 88% | 1018.6 hPa | 0 mm | 0 m/s | 0 W/m² | - |
| 1778045899 | 25° C | 88% | 1018.7 hPa | 0 mm | 0.45 m/s, 43° | 0 W/m² | - |
| 1778045598 | 25° C | 88% | 1018.6 hPa | 0 mm | 0.45 m/s, 87° | 0 W/m² | - |
| 1778045296 | 25.56° C | 88% | 1018.7 hPa | 0 mm | 0.45 m/s, 14° | 0 W/m² | - |
| 1778044994 | 25.56° C | 88% | 1018.9 hPa | 0 mm | 0.45 m/s, 88° | 0 W/m² | - |
| 1778044691 | 25.56° C | 88% | 1018.9 hPa | 0 mm | 0.89 m/s, 75° | 0 W/m² | - |
| 1778044387 | 25.56° C | 88% | 1018.9 hPa | 0 mm | 0.45 m/s, 170° | 0 W/m² | - |
| 1778044085 | 25.56° C | 88% | 1018.8 hPa | 0 mm | 0.45 m/s, 152° | 0 W/m² | - |
| 1778043783 | 25.56° C | 88% | 1018.8 hPa | 0 mm | 0.45 m/s, 40° | 0 W/m² | - |
| 1778043479 | 25.56° C | 88% | 1019 hPa | 0 mm | 0.45 m/s, 202° | 0 W/m² | - |
| 1778043175 | 25.56° C | 87% | 1019 hPa | 0 mm | 0.45 m/s, 132° | 0 W/m² | - |
| 1778042873 | 25.56° C | 87% | 1019 hPa | 0 mm | 0 m/s | 0 W/m² | - |
* Rain latest hour (hover to see other rain measurements)
** Current wind speed in m/s (hover to see current wind gust speed)